GFSFLT1_925_temp_216.txt.gz
Temp
26 25 26 25 23 22 22 21 20 19 19 18 18 18 19 19 19 19 19 19 19 19 18 18 18 19 19 20 19 19 19 19
25 23 23 23 23 23 22 20 19 19 19 18 18 18 18 18 18 18 18 18 18 18 18 18 18 18 18 18 19 19 19 19
24 22 22 22 22 22 22 22 22 21 19 19 19 18 18 18 18 18 17 17 17 17 17 17 17 17 17 17 18 18 18 19
23 22 21 21 21 21 21 20 20 20 20 19 19 18 18 18 18 17 17 17 17 17 16 16 16 16 16 16 16 17 17 18
23 22 21 20 19 20 20 20 20 19 19 19 20 20 20 20 20 18 18 17 17 17 17 16 15 15 15 15 15 15 16 16
23 22 21 20 19 18 19 19 18 18 18 18 18 18 18 18 19 19 19 18 17 16 17 17 17 15 15 15 15 14 14 15
23 22 21 19 18 18 18 18 18 17 17 17 17 17 17 17 17 17 18 18 18 17 16 16 15 15 14 14 14 14 13 13
22 21 21 20 19 18 18 18 18 18 17 17 16 16 16 16 17 17 17 17 17 17 16 15 15 15 14 14 13 13 13 13
21 20 20 19 19 18 18 17 18 17 17 16 16 16 16 16 16 16 15 15 15 15 15 14 13 13 13 13 13 12 12 12
20 20 19 19 19 18 17 17 17 17 17 16 16 15 15 15 15 15 15 14 14 14 13 12 12 12 11 11 12 11 12 11
19 19 19 19 18 18 17 16 16 17 16 16 15 15 15 14 14 13 14 13 13 12 11 10 10 10 10 10 10 10 9 10
19 19 19 18 18 18 17 17 16 16 16 15 15 15 14 14 13 13 13 13 11 10 9 8 7 7 7 7 7 7 8 8
19 18 18 18 18 17 17 17 16 16 15 15 15 14 14 14 13 13 12 10 10 9 8 7 6 5 5 5 5 5 5 6
18 18 17 17 17 17 16 16 16 15 15 15 14 14 14 13 12 10 9 9 8 7 7 7 5 4 3 3 3 3 3 3
18 17 16 17 17 16 16 15 15 15 14 14 13 13 12 10 9 8 7 7 6 5 4 4 3 2 2 2 1 2 2 2
18 18 17 17 16 15 15 15 14 14 13 13 12 9 8 8 7 7 6 5 4 3 3 2 2 1 1 1 1 1 1 1
18 18 17 16 15 15 14 14 14 13 12 11 9 8 7 6 6 5 5 4 3 3 2 1 1 1 1 1 0 -0 -0 -1
18 16 16 15 14 14 14 13 13 12 10 8 7 6 6 6 5 5 5 3 2 2 1 1 1 0 -0 -0 -0 -1 -1 -1
16 16 15 15 14 14 13 13 11 10 9 8 7 6 6 5 5 4 4 2 1 1 1 1 -0 -1 -1 -0 -1 -1 -2 -2

GFSFLT1_925_temp_222.txt.gz
Temp
19 22 23 24 22 22 21 21 21 21 20 20 20 20 20 19 19 19 20 20 20 20 20 19 19 19 19 19 19 19 19 20
19 20 22 22 21 21 21 20 20 20 20 20 20 20 19 19 19 19 19 19 19 19 19 18 18 18 19 18 18 19 19 19
18 18 19 21 20 20 19 19 20 20 21 21 21 21 19 19 19 18 18 18 18 18 18 18 18 18 18 18 17 17 17 18
18 17 17 18 19 19 19 19 19 20 20 19 19 19 19 18 18 18 18 18 18 18 17 17 17 17 17 17 17 16 16 16
18 17 15 16 18 18 18 18 19 19 18 18 18 18 17 17 17 17 17 17 18 18 17 17 17 17 17 17 16 16 15 14
18 17 15 16 17 18 18 18 17 18 18 18 18 17 17 17 17 17 17 17 17 17 17 17 16 16 16 16 15 15 14 14
17 17 16 16 17 17 18 18 17 17 18 18 18 17 17 17 17 17 16 16 16 15 15 15 14 14 14 14 14 13 13 13
16 16 16 15 16 17 18 18 17 17 17 17 17 16 16 16 15 15 15 15 15 15 14 14 13 13 13 13 13 12 12 12
16 16 16 15 16 17 17 17 17 17 17 16 16 16 16 15 15 15 15 14 14 13 13 13 13 13 12 12 11 11 11 11
15 14 15 15 15 16 17 17 16 16 16 16 16 15 15 15 14 14 14 13 12 12 12 12 12 11 10 9 9 9 9 8
14 14 14 14 16 17 17 17 16 16 16 16 15 15 15 14 14 14 13 12 12 11 11 11 10 10 8 7 6 6 6 6
14 15 15 14 15 16 16 16 16 16 15 15 15 15 14 14 14 13 12 12 10 10 10 9 9 7 6 5 4 4 3 3
15 15 14 14 14 15 16 16 16 16 15 15 14 14 14 13 13 12 10 10 9 9 8 8 8 6 6 4 3 2 2 2
14 13 13 13 13 14 15 15 15 15 14 14 13 13 13 12 10 9 9 8 8 7 7 6 6 5 4 2 2 1 0 0
15 14 13 13 13 14 14 14 14 14 13 13 12 12 11 9 8 8 7 7 6 5 5 4 4 3 2 1 1 0 -0 -1
15 14 12 12 12 13 14 14 14 13 12 11 10 9 8 7 7 6 6 5 5 4 4 3 2 2 1 1 0 -0 -1 -1
15 13 13 12 11 11 13 13 12 12 10 9 8 8 7 6 6 6 5 5 4 4 3 2 2 1 1 -1 -0 -2 -2 -2
14 14 13 12 11 12 12 12 11 11 10 8 8 7 6 6 6 6 5 5 4 4 3 2 2 1 -1 -1 -0 -2 -2 -3
15 14 12 12 11 12 12 12 11 10 9 8 7 7 6 6 5 4 4 3 3 3 2 2 1 0 -1 -1 -1 -2 -3 -3

GFSFLT1_925_temp_225.txt.gz
Temp
21 24 25 25 23 21 21 21 20 20 18 19 19 19 19 19 20 20 21 20 20 19 19 19 19 18 18 18 18 18 19 19
19 20 21 21 21 19 20 19 19 18 18 19 18 18 18 18 19 20 21 20 20 19 19 19 19 19 19 18 17 17 18 18
17 17 18 20 20 20 19 18 18 19 19 18 18 18 18 19 18 18 18 19 19 19 18 18 18 18 18 17 16 16 16 16
17 15 16 18 18 18 18 18 18 18 18 18 19 18 18 17 17 18 18 18 17 17 17 17 17 17 16 16 16 16 15 15
17 15 14 16 17 18 18 18 18 18 19 19 19 19 17 17 17 17 17 17 17 17 17 16 16 16 16 15 15 15 15 15
17 16 15 15 17 18 19 19 19 19 19 19 19 18 18 17 17 16 16 17 16 16 16 16 15 15 14 14 14 14 13 13
16 15 14 14 15 17 18 18 18 17 18 18 18 18 17 16 16 16 16 16 16 16 15 15 15 14 14 14 14 13 12 12
14 14 14 13 13 15 16 17 16 17 17 17 17 17 17 17 16 16 15 15 14 14 14 14 14 13 13 12 12 12 11 11
14 14 14 13 13 14 15 15 16 16 17 17 17 17 16 16 15 15 14 14 14 13 14 13 13 12 12 12 11 10 10 9
15 14 14 14 13 14 16 16 16 16 16 16 16 15 15 15 14 14 14 13 13 12 12 12 12 11 11 10 9 9 8 8
15 14 14 14 14 15 16 16 16 16 16 16 15 15 15 14 14 13 13 13 12 11 11 11 10 10 10 10 8 6 6 6
14 14 14 14 14 15 16 16 15 15 16 15 15 14 14 14 13 13 12 12 11 10 9 9 9 8 7 7 6 5 4 4
14 13 13 13 13 14 15 15 15 15 15 15 14 14 14 13 13 12 11 10 9 9 8 7 7 6 5 5 3 2 1 1
13 13 13 13 13 13 14 14 15 15 14 14 13 13 13 12 11 10 9 9 8 7 7 6 5 5 4 3 2 1 0 0
13 12 12 13 13 13 13 14 14 14 13 13 12 11 11 10 9 8 8 7 7 6 5 4 4 4 3 1 1 -0 -0 -1
13 13 13 12 12 11 12 13 13 13 12 11 10 10 9 8 8 7 6 6 5 4 4 4 3 2 1 1 -0 -1 -1 -2
14 14 13 12 12 11 11 11 12 12 11 10 9 9 8 8 8 7 6 6 6 5 4 3 2 2 1 -1 -1 -2 -2 -2
15 14 13 13 12 11 10 10 11 11 10 8 8 9 8 7 6 5 5 4 3 3 2 2 2 1 0 -1 -2 -2 -3 -3
15 14 13 12 12 11 10 10 10 9 8 8 8 7 6 5 5 4 4 4 4 3 2 2 1 1 -0 -1 -1 -3 -3 -4

GFSFLT1_925_temp_231.txt.gz
Temp
27 22 22 22 21 20 19 18 17 19 18 18 19 20 19 19 19 20 19 19 20 20 20 20 19 19 19 18 18 18 18 17
26 24 22 22 21 19 19 18 18 17 17 16 16 17 18 18 19 20 19 19 20 19 20 20 20 19 19 18 18 17 16 17
24 23 21 21 21 20 19 19 18 17 18 17 18 17 17 17 19 19 19 19 19 19 19 19 19 18 17 17 17 17 16 16
24 24 21 20 21 20 20 19 18 17 17 17 17 17 16 16 17 18 18 18 19 19 18 18 17 17 17 17 16 16 15 15
24 24 22 20 20 20 20 19 19 18 17 17 17 19 17 17 17 17 17 17 17 17 17 17 17 16 16 15 15 15 15 14
23 23 23 21 20 19 19 19 18 18 17 18 18 19 18 16 17 17 17 17 16 16 16 16 16 15 14 14 14 14 13 14
22 22 22 21 19 18 18 18 18 17 17 17 18 18 16 16 16 16 15 15 15 15 15 15 14 14 14 14 14 13 12 12
22 21 19 19 18 18 18 17 17 17 17 17 17 17 18 16 15 15 13 14 14 14 14 14 13 13 13 12 12 12 11 11
21 21 20 18 17 16 16 17 17 16 16 16 15 17 17 17 16 15 14 13 13 13 13 13 12 12 12 11 11 11 10 9
20 20 19 18 16 15 16 15 15 15 15 16 17 17 17 16 15 15 14 14 13 12 12 12 11 11 10 10 9 8 8 7
18 17 17 16 16 15 15 14 14 14 15 16 16 15 16 15 14 14 13 13 12 12 11 10 10 9 9 9 8 7 6 5
17 16 16 15 14 14 14 13 13 13 14 14 15 14 14 14 14 13 13 12 11 11 10 9 9 8 7 7 6 4 4 2
17 16 15 14 13 14 13 13 13 13 13 14 14 14 14 14 13 13 13 11 10 10 9 8 7 7 6 5 3 2 2 1
15 14 14 14 14 13 12 12 12 12 12 12 12 11 11 11 11 11 11 9 9 8 8 7 6 5 4 3 2 1 0 -0
15 14 14 14 13 13 12 12 12 12 12 11 10 10 12 11 11 10 9 9 8 7 7 6 5 4 3 2 0 -0 -1 -1
15 14 14 14 13 12 12 11 11 11 11 11 10 10 10 10 9 9 8 8 7 7 6 4 4 3 2 0 -1 -1 -1 -2
14 14 14 14 13 13 12 11 11 11 10 9 9 9 10 9 8 7 7 6 6 5 4 4 3 2 1 -0 -1 -1 -2 -2
14 14 14 14 13 13 12 11 10 10 10 8 8 8 7 7 7 5 5 5 4 4 4 3 3 2 1 -1 -2 -2 -2 -2
14 14 14 14 13 13 11 11 10 10 9 8 7 7 6 5 5 4 4 5 4 3 3 3 2 1 -0 -1 -2 -2 -2 -3

GFSFLT1_925_temp_237.txt.gz
Temp
35 34 33 32 31 29 27 24 23 21 22 22 23 22 21 22 21 22 21 20 21 21 22 22 21 22 22 22 22 22 22 23
35 34 33 32 31 29 27 25 23 21 21 22 23 23 22 22 23 23 22 21 21 20 21 21 21 22 21 21 22 22 21 20
35 34 33 31 31 29 28 26 25 23 23 23 24 24 23 23 23 22 22 20 20 20 20 22 21 22 22 22 20 20 20 19
34 34 33 31 30 30 28 27 26 24 24 24 24 24 24 23 23 22 21 20 20 20 20 21 21 20 20 20 20 20 20 18
34 34 33 31 28 29 28 28 26 25 23 25 25 25 25 24 23 22 21 20 20 20 20 20 20 20 19 19 18 18 17 17
33 34 34 32 29 27 28 28 27 26 24 25 24 25 25 25 23 22 22 20 20 20 20 19 18 17 17 17 17 16 16 16
34 34 34 33 31 26 27 28 28 27 25 23 25 24 25 25 24 22 21 20 19 19 18 17 17 17 16 16 16 16 17 18
34 33 33 33 33 27 26 27 28 27 25 23 24 24 25 25 23 19 17 17 17 17 17 17 16 16 16 16 16 16 16 17
33 33 33 32 32 27 25 27 27 27 26 24 23 23 24 25 21 17 16 16 16 16 16 15 15 15 16 15 15 15 14 14
33 33 32 32 32 30 26 26 27 27 26 24 23 23 23 22 18 16 15 16 15 15 15 15 15 14 14 14 13 13 12 12
31 32 32 31 31 30 26 25 26 27 25 23 23 23 22 20 17 16 16 15 15 14 14 14 14 13 13 13 12 11 11 11
31 31 31 30 29 30 27 25 25 26 24 22 21 21 20 17 16 16 15 14 14 14 14 13 13 12 12 12 12 11 10 10
31 30 28 27 28 27 26 25 24 22 19 19 19 18 17 15 16 15 15 14 14 14 13 13 12 12 11 11 10 10 9 9
29 28 25 24 24 24 22 20 17 16 16 16 16 15 15 15 15 15 14 14 14 13 13 12 12 11 10 10 9 9 9 8
26 25 24 24 23 23 18 16 15 15 14 14 14 14 14 14 14 14 14 13 13 12 12 11 11 10 9 9 8 8 7 6
25 25 23 23 22 22 18 15 14 14 14 13 13 13 13 14 14 14 13 13 12 11 11 10 9 9 9 8 7 7 6 4
23 24 24 23 22 21 20 16 14 14 13 13 13 13 13 13 13 13 12 11 11 10 10 9 8 8 7 6 6 5 5 4
23 22 23 24 23 21 20 17 14 14 14 13 13 13 13 13 12 12 11 11 10 10 9 8 7 4 5 5 5 4 3 1
26 24 22 22 22 22 20 18 15 14 13 13 12 13 12 12 12 12 11 10 10 9 8 7 4 2 3 3 3 2 1 -0

GFSFLT1_925_temp_243.txt.gz
Temp
30 30 30 28 26 25 24 23 22 22 22 22 22 23 22 22 22 22 22 22 22 22 22 22 22 22 22 22 22 22 22 22
31 31 30 28 26 25 24 24 23 22 22 22 22 22 22 23 22 22 21 21 22 21 21 22 22 22 22 22 22 22 22 21
28 30 30 28 26 25 24 24 23 22 22 22 22 22 21 22 22 22 22 21 21 22 21 21 22 22 22 22 22 22 21 20
30 27 28 28 26 25 24 24 23 23 22 22 22 22 22 21 21 21 21 21 21 21 21 21 21 22 22 21 21 21 20 20
30 30 26 26 26 26 24 24 23 23 22 21 21 22 21 21 21 20 20 20 21 21 21 21 21 21 22 21 21 21 20 20
28 30 28 28 27 26 25 24 23 23 21 21 21 22 22 22 21 21 21 20 20 21 20 20 21 21 21 21 21 20 20 20
29 27 27 28 27 26 25 24 23 22 21 21 21 21 22 21 21 20 20 20 19 20 20 20 21 21 21 20 20 20 20 19
26 26 26 26 25 25 25 24 22 22 21 21 21 21 22 22 21 20 20 19 19 20 20 20 20 20 20 20 20 20 19 18
27 28 27 28 26 26 25 24 23 22 21 21 21 21 21 22 21 21 20 19 19 19 20 20 20 19 20 19 19 18 17 17
30 28 29 29 26 27 26 25 24 23 22 21 22 22 22 22 22 21 20 19 19 19 19 19 19 19 19 18 17 16 16 16
24 25 29 30 31 26 26 26 26 24 23 22 22 22 22 22 22 21 20 19 19 18 17 17 19 18 18 17 16 16 16 16
28 24 23 25 28 28 25 24 25 25 23 22 22 22 22 22 22 22 20 19 17 17 17 17 18 17 17 16 16 16 15 14
25 23 22 22 23 23 23 23 24 24 25 23 22 21 21 21 21 20 18 17 16 17 17 17 16 16 15 16 15 14 14 13
22 22 21 21 20 21 21 22 23 24 24 23 22 20 20 20 20 19 16 16 16 16 16 16 15 15 14 15 14 13 12 12
20 19 19 19 19 20 21 21 23 24 24 23 21 21 20 20 18 16 16 16 15 15 14 14 13 13 13 13 13 12 11 11
21 19 19 19 17 17 17 18 20 22 24 23 21 20 18 17 16 16 15 15 15 14 13 12 12 12 12 12 11 11 10 9
20 21 20 20 18 16 16 17 17 17 17 16 17 17 16 16 15 15 14 14 13 12 11 12 11 11 11 11 11 10 9 8
21 20 20 19 19 17 16 17 17 17 16 15 15 15 15 15 14 14 13 12 12 11 10 10 10 10 11 11 10 9 8 8
19 19 19 19 21 19 16 15 15 15 14 14 14 14 14 14 13 13 12 11 11 10 10 9 10 10 10 10 9 9 8 7